CW4784 Weather Reports


time (UTC)temp
C
wind
direction
speed
KPH
gust
KPH
rain 1hr
cm
rain 24hr
cm
rain mn
cm
humidity
%
barometer
mb
20260507221506 20 137 6.4 19.3 0.00 0.00 0.00 24 1015.2
20260507221003 20 132 9.7 20.9 0.00 0.00 0.00 23 1015.2
20260507220502 20 360 9.7 20.9 0.00 0.00 0.00 23 1015.2
20260507220011 20 194 6.4 20.9 0.00 0.00 0.00 23 1015.3
20260507215506 20 360 9.7 29.0 0.00 0.00 0.00 24 1015.4
20260507215003 20 360 17.7 32.2 0.00 0.00 0.00 23 1015.5
20260507214508 21 192 16.1 32.2 0.00 0.00 0.00 24 1015.6
20260507214004 21 254 11.3 16.1 0.00 0.00 0.00 21 1015.6
20260507213509 21 132 1.6 14.5 0.00 0.00 0.00 23 1015.6
20260507213015 21 287 4.8 16.1 0.00 0.00 0.00 21 1015.6
20260507212506 21 324 8.0 17.7 0.00 0.00 0.00 23 1015.7
20260507212004 21 147 11.3 17.7 0.00 0.00 0.00 22 1015.8
20260507211522 21 51 3.2 19.3 0.00 0.00 0.00 23 1015.9
20260507211007 21 304 8.0 19.3 0.00 0.00 0.00 21 1016.0
20260507210504 21 342 11.3 29.0 0.00 0.00 0.00 23 1016.0
20260507210007 21 332 8.0 29.0 0.00 0.00 0.00 20 1016.2
20260507205508 21 355 12.9 24.1 0.00 0.00 0.00 23 1016.3
20260507205003 20 26 9.7 30.6 0.00 0.00 0.00 23 1016.3
20260507204514 20 352 19.3 30.6 0.00 0.00 0.00 23 1016.3
20260507204006 21 9 16.1 32.2 0.00 0.00 0.00 21 1016.4
20260507203507 21 24 6.4 32.2 0.00 0.00 0.00 22 1016.5
20260507203017 20 338 12.9 32.2 0.00 0.00 0.00 21 1016.7
20260507202503 21 44 6.4 25.7 0.00 0.03 0.00 21 1017.0
20260507202007 20 333 8.0 22.5 0.00 0.03 0.00 21 1016.9
20260507201518 20 263 6.4 22.5 0.00 0.05 0.00 20 1017.1
20260507201005 20 348 11.3 22.5 0.00 0.08 0.00 21 1017.3
20260507200511 20 23 6.4 19.3 0.00 0.08 0.00 23 1017.3
20260507200013 19 205 8.0 24.1 0.00 0.10 0.00 20 1017.3
20260507195503 19 186 3.2 24.1 0.00 0.13 0.00 21 1017.4
20260507195007 20 313 8.0 19.3 0.00 0.15 0.00 21 1017.5
20260507194510 20 41 8.0 19.3 0.00 0.15 0.00 23 1017.5
20260507194003 20 21 9.7 16.1 0.00 0.15 0.00 22 1017.5
20260507193508 20 312 4.8 12.9 0.00 0.15 0.00 21 1017.7
20260507193015 18 201 3.2 12.9 0.00 0.15 0.00 22 1017.7
20260507192508 19 333 6.4 14.5 0.00 0.15 0.00 22 1017.8
20260507192006 18 308 4.8 14.5 0.00 0.15 0.00 21 1017.8
20260507191529 18 271 6.4 14.5 0.00 0.15 0.00 25 1017.9
20260507191007 18 277 3.2 12.9 0.00 0.15 0.00 20 1017.9
20260507190507 18 185 1.6 9.7 0.00 0.15 0.00 20 1018.0
20260507190023 18 201 4.8 14.5 0.00 0.15 0.00 19 1018.1
20260507185506 18 344 4.8 14.5 0.00 0.15 0.00 20 1018.2
20260507185008 18 313 1.6 14.5 0.00 0.15 0.00 19 1018.3
20260507184514 18 360 3.2 14.5 0.00 0.15 0.00 18 1018.3
20260507184006 19 360 8.0 14.5 0.00 0.15 0.00 20 1018.5
20260507183507 17 255 1.6 11.3 0.00 0.15 0.00 18 1018.6
20260507183015 17 288 3.2 12.9 0.00 0.15 0.00 20 1018.6
20260507182507 17 152 3.2 12.9 0.00 0.15 0.00 19 1018.7
20260507182009 17 159 6.4 14.5 0.00 0.15 0.00 20 1018.8
20260507181513 17 130 3.2 14.5 0.00 0.15 0.00 18 1018.9
20260507181011 17 150 4.8 11.3 0.00 0.15 0.00 17 1019.0
20260507180507 17 319 0.0 16.1 0.00 0.15 0.00 19 1019.0
20260507180022 16 217 3.2 16.1 0.00 0.15 0.00 22 1019.1
20260507175509 16 204 8.0 16.1 0.00 0.15 0.00 19 1019.2
20260507175007 16 202 0.0 16.1 0.00 0.15 0.00 19 1019.2
20260507174517 16 202 9.7 16.1 0.00 0.15 0.00 20 1019.2
20260507174009 16 230 4.8 17.7 0.00 0.15 0.00 18 1019.2
20260507173506 17 122 6.4 17.7 0.00 0.15 0.00 19 1019.3
20260507173030 17 130 8.0 17.7 0.00 0.15 0.00 18 1019.4
20260507172507 16 173 1.6 16.1 0.00 0.18 0.00 20 1019.3
20260507172002 16 117 6.4 16.1 0.00 0.18 0.00 20 1019.3
20260507171507 16 167 4.8 16.1 0.00 0.18 0.00 20 1019.3
20260507171005 16 178 1.6 17.7 0.00 0.18 0.00 21 1019.3
20260507170503 16 165 8.0 17.7 0.00 0.18 0.00 20 1019.4
20260507170005 16 163 6.4 14.5 0.00 0.20 0.00 21 1019.4
20260507165503 16 113 8.0 14.5 0.00 0.20 0.00 19 1019.5
20260507165006 16 199 3.2 11.3 0.00 0.20 0.00 20 1019.6
20260507164504 16 155 1.6 8.0 0.00 0.20 0.00 20 1019.6
20260507164002 16 103 0.0 11.3 0.00 0.23 0.00 19 1019.7
20260507163503 16 104 3.2 11.3 0.00 0.23 0.00 18 1019.8
20260507163003 15 123 6.4 11.3 0.00 0.23 0.00 19 1019.8
20260507162505 15 204 3.2 11.3 0.00 0.25 0.00 18 1020.0
20260507162004 15 200 4.8 12.9 0.00 0.25 0.00 18 1020.0
20260507161507 15 184 3.2 14.5 0.00 0.28 0.00 21 1020.0
20260507161003 15 136 6.4 14.5 0.00 0.28 0.00 23 1020.0
20260507160504 15 134 6.4 14.5 0.00 0.28 0.00 19 1020.0
20260507160012 15 164 8.0 12.9 0.00 0.30 0.00 17 1020.0
20260507155505 15 168 6.4 11.3 0.00 0.30 0.00 19 1020.1
20260507155007 14 141 4.8 9.7 0.00 0.33 0.00 18 1020.1
20260507154514 14 157 4.8 12.9 0.00 0.33 0.00 16 1020.1
20260507154004 14 161 3.2 16.1 0.00 0.36 0.00 19 1020.1
20260507153504 14 188 8.0 16.1 0.00 0.38 0.00 20 1020.1
20260507153008 14 172 4.8 14.5 0.00 0.38 0.00 21 1020.1
20260507152502 14 183 6.4 14.5 0.00 0.41 0.00 23 1020.1
20260507152007 13 150 9.7 12.9 0.00 0.41 0.00 24 1020.1
20260507151510 13 148 6.4 12.9 0.00 0.41 0.00 25 1020.1
20260507151003 13 167 6.4 12.9 0.00 0.41 0.00 26 1020.1
20260507150506 13 360 4.8 12.9 0.00 0.41 0.00 30 1020.2
20260507150007 12 360 6.4 12.9 0.00 0.41 0.00 28 1020.2
20260507145507 12 360 4.8 8.0 0.00 0.41 0.00 29 1020.2
20260507145004 12 360 1.6 6.4 0.00 0.41 0.00 32 1020.3
20260507144506 11 360 1.6 8.0 0.00 0.41 0.00 34 1020.4
20260507144005 11 360 3.2 8.0 0.00 0.41 0.00 35 1020.4
20260507143504 11 360 1.6 6.4 0.00 0.41 0.00 41 1020.3
20260507143013 10 360 0.0 8.0 0.00 0.41 0.00 46 1020.4
20260507142505 10 360 4.8 8.0 0.00 0.41 0.00 46 1020.4
20260507142004 9 360 3.2 6.4 0.00 0.41 0.00 51 1020.3
20260507141508 9 360 0.0 4.8 0.00 0.41 0.00 52 1020.3
20260507141004 8 360 0.0 4.8 0.00 0.41 0.00 51 1020.4
20260507140507 8 234 0.0 4.8 0.00 0.41 0.00 54 1020.4
20260507140012 8 360 1.6 6.4 0.00 0.41 0.00 53 1020.4
20260507135503 7 360 1.6 8.0 0.00 0.41 0.00 54 1020.4
20260507135006 7 360 3.2 8.0 0.00 0.41 0.00 53 1020.5
20260507134518 7 360 3.2 6.4 0.00 0.41 0.00 58 1020.5
20260507134004 6 360 0.0 6.4 0.00 0.41 0.00 59 1020.4
20260507133508 6 360 3.2 8.0 0.00 0.41 0.00 59 1020.3
20260507133006 5 360 4.8 8.0 0.00 0.41 0.00 60 1020.4
20260507132506 5 14 4.8 6.4 0.00 0.41 0.00 61 1020.4
20260507132009 4 13 3.2 6.4 0.00 0.41 0.00 62 1020.4
20260507131513 4 13 4.8 11.3 0.00 0.41 0.00 63 1020.4
20260507131007 3 13 4.8 11.3 0.00 0.41 0.00 62 1020.4
20260507130506 3 13 3.2 9.7 0.00 0.41 0.00 62 1020.3
20260507130008 2 13 3.2 9.7 0.00 0.41 0.00 63 1020.2
20260507125504 2 360 4.8 11.3 0.00 0.41 0.00 64 1020.2
20260507125006 2 14 3.2 11.3 0.00 0.41 0.00 63 1020.3
20260507124514 2 13 4.8 11.3 0.00 0.41 0.00 64 1020.1
20260507124008 1 13 4.8 12.9 0.00 0.41 0.00 64 1020.2
20260507123504 1 13 8.0 12.9 0.00 0.41 0.00 65 1020.2
20260507123009 1 14 4.8 8.0 0.00 0.41 0.00 65 1020.1
20260507122504 1 14 3.2 8.0 0.00 0.41 0.00 64 1019.9
20260507122008 1 15 4.8 8.0 0.00 0.41 0.00 64 1019.9
20260507121508 0 17 6.4 9.7 0.00 0.41 0.00 65 1019.9
20260507121005 0 360 3.2 14.5 0.00 0.41 0.00 67 1019.9
20260507120507 0 360 8.0 14.5 0.00 0.41 0.00 67 1020.0
20260507120026 0 360 11.3 14.5 0.00 0.41 0.00 65 1020.0
20260507115507 0 360 9.7 14.5 0.00 0.41 0.00 64 1020.1
20260507115011 0 360 9.7 14.5 0.00 0.41 0.00 66 1020.0
20260507114512 0 360 6.4 16.1 0.00 0.41 0.00 66 1020.1
20260507114009 0 360 8.0 16.1 0.00 0.41 0.00 67 1020.0
20260507113506 0 360 8.0 16.1 0.00 0.41 0.00 67 1019.9
20260507113033 0 360 8.0 17.7 0.00 0.41 0.00 67 1019.9
20260507112508 0 360 11.3 17.7 0.00 0.41 0.00 68 1019.9
20260507112012 0 360 11.3 19.3 0.00 0.41 0.00 68 1020.0
20260507111514 1 360 12.9 19.3 0.00 0.41 0.00 67 1020.1
20260507111009 0 360 9.7 19.3 0.00 0.41 0.00 68 1020.2
20260507110505 0 360 12.9 19.3 0.00 0.41 0.00 68 1020.2
20260507110015 0 360 14.5 19.3 0.00 0.41 0.00 68 1020.2
20260507105507 0 360 12.9 17.7 0.00 0.41 0.00 67 1020.4
20260507105006 1 360 9.7 17.7 0.00 0.41 0.00 68 1020.4
20260507104516 0 360 11.3 17.7 0.00 0.41 0.00 71 1020.4
20260507104008 0 360 12.9 16.1 0.00 0.41 0.00 71 1020.5
20260507103508 0 360 8.0 12.9 0.00 0.41 0.00 72 1020.5
20260507103016 0 360 6.4 12.9 0.00 0.41 0.00 73 1020.5
20260507102503 0 360 8.0 12.9 0.00 0.41 0.00 75 1020.6
20260507102008 -1 360 6.4 9.7 0.00 0.41 0.00 77 1020.7
20260507101516 -1 360 4.8 9.7 0.00 0.41 0.00 76 1020.9
20260507101007 0 360 6.4 14.5 0.00 0.41 0.00 75 1020.9
20260507100507 0 360 6.4 14.5 0.00 0.41 0.00 75 1021.0
20260507100024 0 360 6.4 14.5 0.00 0.41 0.00 76 1020.9
20260507095509 0 360 8.0 12.9 0.00 0.41 0.00 77 1020.9
20260507095009 -1 360 4.8 9.7 0.00 0.41 0.00 77 1020.9
20260507094511 -1 360 6.4 9.7 0.00 0.41 0.00 78 1020.8
20260507094007 -1 360 4.8 8.0 0.00 0.41 0.00 78 1020.7
20260507093505 -1 360 4.8 8.0 0.00 0.41 0.00 80 1020.7
20260507093020 -1 360 4.8 8.0 0.00 0.41 0.00 81 1020.7
20260507092507 -1 360 4.8 8.0 0.00 0.41 0.00 81 1020.7
20260507092006 -1 360 4.8 8.0 0.00 0.41 0.00 80 1020.7
20260507091522 -1 360 6.4 8.0 0.00 0.41 0.00 78 1020.7
20260507091010 0 360 4.8 8.0 0.00 0.41 0.00 76 1020.6
20260507090504 0 360 1.6 4.8 0.00 0.41 0.00 75 1020.6
20260507090015 0 360 1.6 6.4 0.00 0.41 0.00 75 1020.5
20260507085505 0 360 3.2 9.7 0.00 0.41 0.00 77 1020.7
20260507085007 1 360 3.2 9.7 0.00 0.41 0.00 79 1020.6
20260507084520 0 360 6.4 9.7 0.00 0.41 0.00 83 1020.6
20260507084006 0 360 4.8 9.7 0.00 0.41 0.00 84 1020.5
20260507083506 -1 360 4.8 9.7 0.00 0.41 0.00 84 1020.5
20260507083024 -1 360 6.4 9.7 0.00 0.41 0.00 84 1020.6
20260507082512 -1 360 4.8 9.7 0.00 0.41 0.00 83 1020.7
20260507082010 -1 360 4.8 9.7 0.00 0.41 0.00 83 1020.7
20260507081523 0 360 4.8 9.7 0.00 0.41 0.00 83 1020.7
20260507081007 0 360 4.8 12.9 0.00 0.41 0.00 84 1020.7
20260507080508 -1 360 6.4 12.9 0.00 0.43 0.00 83 1020.8
20260507080024 -1 360 6.4 9.7 0.00 0.43 0.00 83 1020.8
20260507075510 -1 360 3.2 9.7 0.00 0.43 0.00 83 1020.9
20260507075010 -1 360 4.8 9.7 0.00 0.43 0.00 84 1020.9
20260507074531 -1 360 4.8 8.0 0.00 0.43 0.00 86 1021.1
20260507074007 -1 360 3.2 8.0 0.00 0.43 0.00 86 1021.0
20260507073508 -2 360 4.8 8.0 0.00 0.43 0.00 86 1021.1
20260507073020 -2 360 6.4 8.0 0.00 0.46 0.00 87 1021.1
20260507072509 -2 360 3.2 6.4 0.00 0.46 0.00 87 1021.3
20260507072002 -1 360 3.2 6.4 0.00 0.46 0.00 87 1021.1
20260507071505 -1 360 3.2 4.8 0.00 0.46 0.00 87 1021.2
20260507071003 -1 360 0.0 4.8 0.00 0.46 0.00 87 1021.1
20260507070504 -1 360 3.2 6.4 0.00 0.46 0.00 87 1021.3
20260507070010 -2 360 3.2 6.4 0.00 0.46 0.00 86 1021.3
20260507065507 -2 360 3.2 6.4 0.00 0.46 0.00 86 1021.3
20260507065005 -1 360 1.6 4.8 0.00 0.46 0.00 86 1021.3
20260507064508 -1 360 1.6 6.4 0.00 0.46 0.00 88 1021.3
20260507064008 -1 360 3.2 8.0 0.00 0.46 0.00 88 1021.4
20260507063504 -1 360 4.8 8.0 0.00 0.46 0.00 88 1021.4
20260507063011 -2 360 3.2 6.4 0.00 0.46 0.00 88 1021.4
20260507062508 -2 360 3.2 6.4 0.00 0.48 0.00 89 1021.4
20260507062003 -2 360 3.2 6.4 0.00 0.48 0.00 89 1021.4
20260507061513 -2 360 3.2 8.0 0.00 0.48 0.00 89 1021.4
20260507061006 -2 360 4.8 8.0 0.00 0.48 0.00 89 1021.3
20260507060507 -2 360 4.8 8.0 0.00 0.48 0.00 90 1021.3
20260507060006 -2 360 3.2 8.0 0.00 0.51 0.00 90 1021.3
20260507055504 -2 360 4.8 8.0 0.00 0.51 0.51 89 1021.3
20260507055004 -2 360 4.8 6.4 0.00 0.51 0.51 89 1021.2
20260507054508 -2 360 1.6 4.8 0.00 0.51 0.51 89 1021.1
20260507054004 -2 360 3.2 4.8 0.00 0.53 0.51 89 1021.1
20260507053504 -2 360 3.2 6.4 0.00 0.53 0.51 89 1021.1
20260507053010 -2 360 1.6 6.4 0.00 0.53 0.51 89 1021.1
20260507052509 -2 360 0.0 4.8 0.00 0.53 0.51 89 1021.0
20260507052004 -2 360 0.0 4.8 0.00 0.56 0.51 89 1021.0
20260507051510 -2 360 1.6 4.8 0.00 0.56 0.51 89 1020.9
20260507051007 -2 360 0.0 1.6 0.00 0.56 0.51 89 1020.9
20260507050503 -2 360 0.0 1.6 0.00 0.58 0.51 88 1020.9
20260507050020 -2 360 0.0 1.6 0.00 0.58 0.51 88 1021.0
20260507045504 -2 360 0.0 0.0 0.00 0.61 0.51 88 1021.0
20260507045007 -1 360 0.0 3.2 0.00 0.61 0.51 89 1021.1
20260507044510 -1 360 0.0 3.2 0.00 0.64 0.51 89 1021.0
20260507044004 -1 360 0.0 3.2 0.00 0.64 0.51 89 1020.9
20260507043503 -1 360 0.0 4.8 0.00 0.64 0.51 89 1020.8
20260507043008 -1 360 0.0 4.8 0.00 0.64 0.51 89 1020.9
20260507042507 -1 360 1.6 6.4 0.00 0.64 0.51 89 1020.9
20260507042004 -1 360 3.2 6.4 0.00 0.66 0.51 89 1020.9
20260507041518 -1 360 0.0 0.0 0.00 0.66 0.51 89 1020.8
20260507041005 -1 360 0.0 4.8 0.00 0.66 0.51 89 1020.9
20260507040507 -1 360 0.0 4.8 0.00 0.66 0.51 89 1020.9
20260507040017 -2 360 3.2 6.4 0.00 0.66 0.51 88 1020.8
20260507035510 -2 360 3.2 6.4 0.00 0.69 0.51 88 1020.8
20260507035010 -1 360 3.2 6.4 0.00 0.69 0.51 87 1020.8
20260507034514 -1 360 3.2 6.4 0.00 0.69 0.51 87 1020.9
20260507034006 -1 360 3.2 8.0 0.00 0.69 0.51 87 1020.9
20260507033506 -1 360 4.8 8.0 0.00 0.69 0.51 87 1020.9
20260507033012 -1 360 4.8 8.0 0.00 0.69 0.51 87 1021.0
20260507032506 -1 360 3.2 6.4 0.00 0.69 0.51 87 1020.9
20260507032006 -1 360 3.2 6.4 0.00 0.69 0.51 87 1020.8
20260507031513 -1 360 3.2 6.4 0.00 0.71 0.51 87 1020.9
20260507031010 -1 360 3.2 6.4 0.00 0.71 0.51 86 1020.9
20260507030506 -1 360 3.2 6.4 0.00 0.71 0.51 86 1020.9
20260507030017 -1 360 3.2 8.0 0.00 0.71 0.51 86 1020.9
20260507025508 0 360 4.8 9.7 0.00 0.71 0.51 86 1020.9
20260507025007 0 360 3.2 9.7 0.00 0.71 0.51 86 1021.0
20260507024511 0 360 4.8 9.7 0.00 0.71 0.51 86 1020.9
20260507024009 0 360 4.8 8.0 0.00 0.71 0.51 86 1020.9
20260507023506 0 360 4.8 8.0 0.00 0.71 0.51 85 1021.0
20260507023020 0 360 4.8 12.9 0.00 0.71 0.51 85 1021.0
20260507022512 0 360 4.8 12.9 0.00 0.71 0.51 85 1020.9
20260507022011 0 360 6.4 12.9 0.00 0.71 0.51 84 1020.9
20260507021518 0 360 8.0 9.7 0.00 0.71 0.51 84 1020.9
20260507021007 0 360 6.4 9.7 0.00 0.71 0.51 83 1020.9
20260507020506 0 360 4.8 12.9 0.00 0.71 0.51 82 1020.9
20260507020014 0 360 8.0 12.9 0.00 0.71 0.51 82 1020.9
20260507015507 0 360 8.0 12.9 0.00 0.71 0.51 82 1020.9
20260507015007 0 360 4.8 8.0 0.00 0.71 0.51 81 1020.9
20260507014515 1 360 4.8 8.0 0.00 0.71 0.51 80 1020.9
20260507014007 1 360 4.8 11.3 0.00 0.71 0.51 79 1020.9
20260507013508 1 13 4.8 12.9 0.00 0.71 0.51 79 1020.8
20260507013022 1 360 6.4 12.9 0.00 0.71 0.51 79 1020.8
20260507012506 2 360 6.4 14.5 0.00 0.71 0.51 78 1020.9
20260507012007 2 360 8.0 19.3 0.00 0.71 0.51 78 1020.9
20260507011524 2 360 9.7 19.3 0.00 0.71 0.51 78 1020.9
20260507011006 2 13 14.5 19.3 0.00 0.71 0.51 78 1020.9
20260507010511 2 12 14.5 19.3 0.00 0.71 0.51 78 1021.0
20260507010033 2 13 14.5 22.5 0.00 0.71 0.51 78 1021.0
20260507005508 2 13 16.1 22.5 0.00 0.71 0.51 78 1021.0
20260507005011 2 14 14.5 19.3 0.00 0.71 0.51 78 1021.1
20260507004514 2 16 12.9 19.3 0.00 0.71 0.51 78 1020.9
20260507004006 2 360 12.9 20.9 0.00 0.71 0.51 78 1020.8
20260507003507 2 360 16.1 22.5 0.00 0.71 0.51 78 1020.9
20260507003002 3 360 17.7 22.5 0.00 0.71 0.51 77 1020.9
20260507002502 3 12 16.1 20.9 0.00 0.71 0.51 75 1020.8
20260507002003 4 360 12.9 19.3 0.00 0.71 0.51 72 1020.8
20260507001504 4 360 8.0 12.9 0.00 0.71 0.51 72 1020.9
20260507001003 4 360 4.8 11.3 0.00 0.71 0.51 74 1021.0
20260507000503 3 15 4.8 8.0 0.00 0.74 0.51 74 1021.1
20260507000008 3 16 3.2 8.0 0.00 0.76 0.51 72 1020.9
20260506235504 3 16 3.2 8.0 0.00 0.79 0.51 72 1020.9
20260506235004 3 15 1.6 6.4 0.00 0.81 0.51 72 1020.9
20260506234513 3 17 3.2 8.0 0.00 0.86 0.51 73 1020.9
20260506234007 3 15 3.2 8.0 0.00 0.86 0.51 69 1020.9
20260506233504 5 16 1.6 6.4 0.00 0.89 0.51 73 1020.9
20260506233010 5 360 0.0 9.7 0.00 0.91 0.51 74 1020.9
20260506232502 5 360 3.2 9.7 0.00 0.91 0.51 72 1020.9
20260506232002 4 360 4.8 9.7 0.00 0.91 0.51 69 1020.6
20260506231508 5 360 0.0 14.5 0.00 0.91 0.51 73 1020.6
20260506231004 5 360 3.2 14.5 0.00 0.91 0.51 74 1020.5
20260506230502 5 360 4.8 12.9 0.00 0.91 0.51 75 1020.4
20260506230005 5 360 4.8 12.9 0.00 0.91 0.51 79 1020.5
20260506225504 4 16 6.4 16.1 0.00 0.91 0.51 79 1020.5
20260506225005 4 9 8.0 16.1 0.00 0.91 0.51 81 1020.5
20260506224516 3 360 8.0 16.1 0.00 0.91 0.51 82 1020.5
20260506224004 3 360 9.7 14.5 0.00 0.94 0.51 81 1020.6
20260506223506 3 360 4.8 14.5 0.00 0.94 0.51 81 1020.5
20260506223012 3 360 8.0 16.1 0.00 0.94 0.51 81 1020.5
20260506222504 3 18 8.0 17.7 0.00 0.94 0.51 79 1020.6
20260506222003 4 15 12.9 17.7 0.00 0.94 0.51 80 1020.7